Minden, LA

4:04 AM CST on December 07, 2016 (GMT -0600)
Minden

Weather History for KMNE - December, 2012

Change the Weather History Date:

Monday, December 10, 2012

  Actual Average (KBAD) Record (KBAD)
Temperature  
Mean Temperature 46 °F -  
Max Temperature 58 °F 55 °F 76 °F (2007)
Min Temperature 32 °F 37 °F 28 °F (2013)
Degree Days  
Heating Degree Days 20    
Moisture  
Dew Point 33 °F    
Average Humidity 68    
Maximum Humidity 92    
Minimum Humidity 44    
Precipitation  
Precipitation 0.52 in - - ()
Sea Level Pressure  
Sea Level Pressure 30.00 in    
Wind  
Wind Speed 8 mph (NW)    
Max Wind Speed 17 mph    
Max Gust Speed 26 mph    
Visibility 9 miles    
Events Rain , Thunderstorm    
Averages and records for this station are not official NWS values.
T = Trace of Precipitation, MM = Missing Value Source: NWS Daily Summary

Daily Weather History Graph

Daily Weather History Graph

Search for Another Location

Airport or City:

Trip Planner

Search our weather history database for the weather conditions in past years. The results will help you decide how hot, cold, wet, or windy it might be!

Date:

Astronomy

Dec. 10, 2012 Rise Set
Actual Time 7:04 AM CST 5:07 PM CST
Civil Twilight 6:37 AM CST 5:34 PM CST
Nautical Twilight 6:06 AM CST 6:05 PM CST
Astronomical Twilight 5:36 AM CST 6:35 PM CST
Moon 3:55 AM CST (12/10) 2:52 PM CST (12/10)
Length of Visible Light 10h 57m
Length of Day
10h 02m
Waning Crescent, 10% of the Moon is Illuminated
Dec 10
Waning Crescent
Dec 13
New
Dec 19
First Quarter
Dec 28
Full
Jan 4
Last Quarter

Hourly Weather History & Observations

Time (CST) Temp. Windchill Dew Point Humidity Pressure Visibility Wind Dir Wind Speed Gust Speed Precip Events Conditions
12:15 AM 58.1 °F - 54.3 °F 87% 29.86 in 7.0 mi WNW 10.4 mph - 0.01 in Rain Light Rain
12:35 AM 56.3 °F - 53.2 °F 89% 29.85 in 2.5 mi West 4.6 mph - 0.17 in Rain , Thunderstorm Rain
12:55 AM 55.6 °F - 52.7 °F 90% 29.89 in 4.0 mi West 9.2 mph 20.7 mph 0.21 in Rain , Thunderstorm Heavy Thunderstorms and Rain
1:15 AM 53.8 °F - 50.9 °F 90% 29.87 in 5.0 mi WNW 9.2 mph - 0.03 in Rain , Thunderstorm Light Thunderstorms and Rain
1:55 AM 52.9 °F - 50.0 °F 90% 29.86 in 5.0 mi NNW 8.1 mph 16.1 mph 0.05 in   Light Drizzle
2:15 AM 52.3 °F - 49.3 °F 89% 29.89 in 5.0 mi WNW 8.1 mph - 0.06 in Rain , Thunderstorm Thunderstorms and Rain
2:35 AM 51.8 °F - 48.9 °F 90% 29.86 in 4.0 mi North 6.9 mph - 0.14 in Rain Rain
2:55 AM 51.4 °F - 48.7 °F 90% 29.86 in 5.0 mi NW 6.9 mph - 0.16 in Rain Light Rain
3:15 AM 51.1 °F - 48.4 °F 90% 29.86 in 5.0 mi NNW 6.9 mph - 0.01 in Rain Light Rain
3:35 AM 50.9 °F - 48.2 °F 90% 29.85 in 7.0 mi NW 8.1 mph - 0.02 in Rain Rain
3:55 AM 50.5 °F - 47.8 °F 90% 29.85 in 5.0 mi NW 5.8 mph - 0.04 in Rain Rain
4:15 AM 50.2 °F - 47.7 °F 91% 29.88 in 4.0 mi NW 8.1 mph - 0.04 in Rain Light Rain
4:35 AM 49.6 °F - 47.3 °F 92% 29.88 in 7.0 mi NW 9.2 mph - 0.05 in Rain Light Rain
4:55 AM 49.3 °F - 46.4 °F 90% 29.89 in 10.0 mi NW 6.9 mph - 0.06 in   Overcast
5:15 AM 48.6 °F - 45.0 °F 87% 29.91 in 10.0 mi WNW 11.5 mph 18.4 mph N/A   Overcast
5:55 AM 45.3 °F 39.0 °F 38.7 °F 78% 29.94 in 10.0 mi NW 13.8 mph 26.5 mph N/A   Overcast
6:15 AM 44.6 °F 39.7 °F 37.4 °F 76% 29.96 in 10.0 mi NW 9.2 mph 20.7 mph N/A   Overcast
6:35 AM 43.7 °F 36.3 °F 35.8 °F 74% 29.96 in 10.0 mi NW 16.1 mph 23.0 mph N/A   Overcast
6:55 AM 42.6 °F 34.6 °F 32.7 °F 68% 29.98 in 10.0 mi NW 17.3 mph 24.2 mph N/A   Overcast
7:15 AM 41.4 °F 33.3 °F 31.5 °F 68% 30.01 in 10.0 mi NW 16.1 mph 21.9 mph N/A   Overcast
7:35 AM 40.3 °F 31.9 °F 29.7 °F 66% 30.01 in 10.0 mi NW 16.1 mph 24.2 mph N/A   Overcast
7:55 AM 39.6 °F 32.1 °F 28.2 °F 64% 30.01 in 10.0 mi NW 12.7 mph 20.7 mph N/A   Overcast
8:15 AM 39.4 °F 33.8 °F 28.2 °F 64% 30.01 in 10.0 mi NW 8.1 mph - N/A   Overcast
8:35 AM 39.6 °F 34.0 °F 28.6 °F 65% 30.01 in 10.0 mi NW 8.1 mph - N/A   Overcast
8:55 AM 39.6 °F 34.0 °F 28.2 °F 64% 30.03 in 10.0 mi WNW 8.1 mph - N/A   Overcast
9:35 AM 41.5 °F 33.8 °F 27.3 °F 57% 30.04 in 10.0 mi NW 15.0 mph 18.4 mph N/A   Scattered Clouds
9:55 AM 42.3 °F 34.8 °F 26.6 °F 54% 30.04 in 10.0 mi NNW 15.0 mph 19.6 mph N/A   Clear
10:15 AM 43.2 °F 37.9 °F 26.6 °F 52% 30.04 in 10.0 mi NW 9.2 mph - N/A   Clear
10:35 AM 43.5 °F 37.9 °F 25.3 °F 49% 30.04 in 10.0 mi NNW 10.4 mph 16.1 mph N/A   Clear
10:55 AM 44.8 °F 38.7 °F 25.3 °F 47% 30.03 in 10.0 mi NNW 12.7 mph 17.3 mph N/A   Clear
11:15 AM 46.0 °F 41.9 °F 26.2 °F 46% 30.03 in 10.0 mi NNW 8.1 mph - N/A   Clear
11:35 AM 47.1 °F - 26.6 °F 45% 30.02 in 10.0 mi NW 16.1 mph 19.6 mph N/A   Clear
11:55 AM 47.5 °F - 27.1 °F 45% 30.02 in 10.0 mi NNW 11.5 mph 18.4 mph N/A   Clear
12:15 PM 47.8 °F - 27.1 °F 45% 30.01 in 10.0 mi WNW 6.9 mph - N/A   Clear
12:35 PM 48.2 °F - 27.1 °F 44% 30.00 in 10.0 mi NW 11.5 mph 16.1 mph N/A   Clear
12:55 PM 48.2 °F - 28.0 °F 46% 30.00 in 10.0 mi NW 10.4 mph 17.3 mph N/A   Scattered Clouds
1:15 PM 47.8 °F - 28.0 °F 46% 30.00 in 10.0 mi NW 9.2 mph - N/A   Scattered Clouds
1:55 PM 48.0 °F - 28.9 °F 48% 29.99 in 10.0 mi NW 10.4 mph 18.4 mph N/A   Clear
2:15 PM 47.5 °F - 29.7 °F 50% 29.99 in 10.0 mi NW 10.4 mph 16.1 mph N/A   Clear
2:35 PM 47.5 °F - 29.1 °F 49% 30.00 in 10.0 mi NW 10.4 mph - N/A   Clear
2:55 PM 47.3 °F - 29.3 °F 50% 30.00 in 10.0 mi WNW 11.5 mph 19.6 mph N/A   Clear
3:15 PM 47.3 °F - 28.9 °F 49% 30.00 in 10.0 mi NNW 11.5 mph 17.3 mph N/A   Clear
3:35 PM 46.8 °F - 28.8 °F 50% 30.01 in 10.0 mi NW 9.2 mph 18.4 mph N/A   Clear
3:55 PM 46.8 °F - 28.6 °F 49% 30.01 in 10.0 mi NW 9.2 mph - N/A   Clear
4:15 PM 46.0 °F 42.5 °F 27.9 °F 49% 30.01 in 10.0 mi NNW 6.9 mph - N/A   Clear
4:35 PM 45.3 °F 40.6 °F 27.9 °F 51% 30.03 in 10.0 mi WNW 9.2 mph - N/A   Clear
4:55 PM 44.2 °F 39.2 °F 27.5 °F 52% 30.03 in 10.0 mi NW 9.2 mph - N/A   Clear
5:15 PM 42.8 °F 38.6 °F 27.7 °F 55% 30.03 in 10.0 mi NNW 6.9 mph - N/A   Clear
5:35 PM 41.7 °F 38.8 °F 28.4 °F 59% 30.04 in 10.0 mi NNW 4.6 mph - N/A   Clear
5:55 PM 41.0 °F - 28.0 °F 60% 30.03 in 10.0 mi Calm Calm - N/A   Clear
6:15 PM 40.3 °F - 28.4 °F 63% 30.04 in 10.0 mi Calm Calm - N/A   Clear
6:35 PM 40.1 °F - 27.3 °F 60% 30.05 in 10.0 mi Calm Calm - N/A   Clear
6:55 PM 37.8 °F 35.3 °F 30.4 °F 75% 30.04 in 10.0 mi NNW 3.5 mph - N/A   Clear
7:15 PM 37.0 °F 34.5 °F 28.9 °F 73% 30.05 in 10.0 mi WNW 3.5 mph - N/A   Clear
7:35 PM 37.0 °F - 28.0 °F 70% 30.06 in 10.0 mi Calm Calm - N/A   Clear
7:55 PM 35.6 °F 32.8 °F 29.1 °F 77% 30.06 in 10.0 mi NW 3.5 mph - N/A   Clear
8:15 PM 34.9 °F - 29.3 °F 80% 30.06 in 10.0 mi Calm Calm - N/A   Clear
8:35 PM 35.6 °F - 28.4 °F 75% 30.07 in 10.0 mi Calm Calm - N/A   Clear
8:55 PM 35.8 °F - 28.6 °F 75% 30.08 in 10.0 mi Calm Calm - N/A   Clear
9:15 PM 34.7 °F - 29.8 °F 82% 30.08 in 10.0 mi Calm Calm - N/A   Clear
9:35 PM 33.8 °F - 29.7 °F 85% 30.08 in 10.0 mi Calm Calm - N/A   Clear
9:55 PM 33.3 °F - 28.6 °F 83% 30.09 in 10.0 mi Calm Calm - N/A   Clear
10:15 PM 33.8 °F 30.8 °F 27.7 °F 78% 30.10 in 10.0 mi NNW 3.5 mph - N/A   Clear
10:35 PM 33.8 °F 28.6 °F 27.9 °F 79% 30.10 in 10.0 mi NNW 5.8 mph - N/A   Clear
10:55 PM 34.0 °F 29.8 °F 26.6 °F 74% 30.11 in 10.0 mi North 4.6 mph - N/A   Clear
11:15 PM 34.0 °F 31.0 °F 26.6 °F 74% 30.11 in 10.0 mi North 3.5 mph - N/A   Clear
11:55 PM 32.7 °F 29.6 °F 26.8 °F 79% 30.11 in 10.0 mi North 3.5 mph - N/A   Clear